Time_in_sec,gx,gy,gz
1312470943.64844680,-0.04970572,0.01973810,-0.99856885
1312470943.68845510,-0.04954398,0.01993453,-0.99857299
1312470943.73749614,-0.04937811,0.01966274,-0.99858659
1312470943.78741765,-0.04931125,0.01965509,-0.99859004
1312470943.83673263,-0.04958248,0.01985823,-0.99857260
1312470943.88728356,-0.04954131,0.01970143,-0.99857774
1312470943.93929863,-0.04950610,0.01981200,-0.99857730
1312470943.98732448,-0.04964668,0.01990065,-0.99856856
1312470944.03543544,-0.04973455,0.01966953,-0.99856877
1312470944.09642506,-0.04964392,0.01985803,-0.99856955
1312470944.13629937,-0.04987410,0.01976873,-0.99855985
1312470944.18836427,-0.04994388,0.01969028,-0.99855791
1312470944.23633170,-0.04993737,0.01953268,-0.99856133
1312470944.28728008,-0.04980282,0.01951565,-0.99856838
1312470944.33530283,-0.04948615,0.01947115,-0.99858500
1312470944.38524628,-0.04960668,0.01947572,-0.99857893
1312470944.43628311,-0.04978134,0.01956290,-0.99856853
1312470944.48522401,-0.04971600,0.01954462,-0.99857214
1312470944.53635073,-0.04971449,0.01939022,-0.99857523
1312470944.58421755,-0.04986680,0.01944017,-0.99856666
1312470944.63530993,-0.04967320,0.01936558,-0.99857776
1312470944.68727970,-0.04973960,0.01914691,-0.99857867
1312470944.73544049,-0.04969077,0.01899208,-0.99858406
1312470944.78450346,-0.04956357,0.01896488,-0.99859090
1312470944.83558345,-0.04950187,0.01913333,-0.99859075
1312470944.88445067,-0.04961638,0.01912779,-0.99858517
1312470944.93572903,-0.04951372,0.01910922,-0.99859062
1312470944.98841763,-0.04966606,0.01896549,-0.99858580
1312470945.03588414,-0.04969707,0.01894235,-0.99858469
1312470945.08728790,-0.04978026,0.01864386,-0.99858617
1312470945.13640714,-0.04966201,0.01867898,-0.99859140
1312470945.18446326,-0.04979447,0.01835979,-0.99859072
1312470945.23639250,-0.04990993,0.01842364,-0.99858378
1312470945.28842664,-0.04961011,0.01827685,-0.99860142
1312470945.33540726,-0.04965043,0.01826435,-0.99859964
1312470945.38843632,-0.05007416,0.01845485,-0.99857498
1312470945.43541694,-0.05031796,0.01841135,-0.99856353
1312470945.48728347,-0.05028258,0.01851201,-0.99856345
1312470945.53548050,-0.05038525,0.01850610,-0.99855839
1312470945.58741236,-0.05052595,0.01849288,-0.99855152
1312470945.63540745,-0.05054832,0.01870738,-0.99854639
1312470945.68742490,-0.05055042,0.01849529,-0.99855024
1312470945.73548436,-0.05037840,0.01871368,-0.99855486
1312470945.78844643,-0.05039928,0.01867317,-0.99855457
1312470945.83630276,-0.05056148,0.01877073,-0.99854454
1312470945.88729167,-0.05052603,0.01877149,-0.99854632
1312470945.93540549,-0.05024122,0.01878176,-0.99856050
1312470945.98844719,-0.05032306,0.01904178,-0.99855145
1312470946.03533626,-0.05025784,0.01897345,-0.99855604
1312470946.08729839,-0.05026219,0.01900808,-0.99855516
1312470946.13535309,-0.05024515,0.01903911,-0.99855543
1312470946.18729544,-0.05036812,0.01891229,-0.99855164
1312470946.23630285,-0.05037848,0.01895307,-0.99855034
1312470946.28730655,-0.05042396,0.01887662,-0.99854950
1312470946.33531356,-0.05031178,0.01931118,-0.99854685
1312470946.38741827,-0.05060108,0.01930987,-0.99853225
1312470946.43531418,-0.05055181,0.01922300,-0.99853642
1312470946.48740983,-0.05036319,0.01941852,-0.99854217
1312470946.53532124,-0.05042405,0.01948485,-0.99853781
1312470946.58732438,-0.05029149,0.01929260,-0.99854823
1312470946.63674426,-0.05009505,0.01933965,-0.99855719
1312470946.68728566,-0.05028951,0.01941458,-0.99854596
1312470946.73673058,-0.05058225,0.01941138,-0.99853124
1312470946.78451991,-0.05064262,0.01933606,-0.99852964
1312470946.83638406,-0.05051713,0.01967249,-0.99852942
1312470946.88438392,-0.05044355,0.01968059,-0.99853299
1312470946.93597317,-0.05023050,0.01963208,-0.99854468
1312470946.98730397,-0.05034687,0.01946511,-0.99854209
1312470947.03666258,-0.04995689,0.01968281,-0.99855741
1312470947.08727837,-0.04984511,0.01984627,-0.99855976
1312470947.13548779,-0.04992165,0.01989919,-0.99855488
1312470947.18436813,-0.05003633,0.02010031,-0.99854511
1312470947.23673320,-0.05017268,0.02031783,-0.99853387
1312470947.28439283,-0.05024201,0.02013546,-0.99853408
1312470947.33665681,-0.05036764,0.02011143,-0.99852823
1312470947.38512683,-0.05014884,0.01989815,-0.99854352
1312470947.43668795,-0.05010612,0.01955526,-0.99855244
1312470947.48728228,-0.05019805,0.01956337,-0.99854766
1312470947.53671598,-0.05018273,0.01981254,-0.99854352
1312470947.58437014,-0.05021847,0.02010623,-0.99853585
1312470947.63664651,-0.05021889,0.02005919,-0.99853678
1312470947.68443942,-0.05005766,0.02021080,-0.99854181
1312470947.73711467,-0.05012938,0.02014161,-0.99853961
1312470947.78434753,-0.05039861,0.02012167,-0.99852646
1312470947.83640933,-0.05036754,0.02001861,-0.99853010
1312470947.88728380,-0.05038993,0.02018987,-0.99852552
1312470947.94339037,-0.05028837,0.02017290,-0.99853099
1312470947.98444176,-0.05032534,0.02024345,-0.99852770
1312470948.03635454,-0.05014572,0.02044750,-0.99853258
1312470948.08442354,-0.05018251,0.02027429,-0.99853426
1312470948.13629770,-0.05024030,0.02017921,-0.99853328
1312470948.18444872,-0.05030434,0.02034689,-0.99852665
1312470948.23530912,-0.05031296,0.02042105,-0.99852471
1312470948.28728628,-0.05020617,0.02059232,-0.99852656
1312470948.33531690,-0.05006677,0.02056917,-0.99853404
1312470948.38443947,-0.05008271,0.02033346,-0.99853807
1312470948.43528795,-0.04998717,0.02037332,-0.99854204
1312470948.48843408,-0.05007616,0.02024400,-0.99854021
1312470948.53629732,-0.05019294,0.02036263,-0.99853194
1312470948.58843517,-0.05023793,0.02025098,-0.99853195
1312470948.63540483,-0.05041070,0.02012652,-0.99852576
1312470948.68726563,-0.05069724,0.02003001,-0.99851319
1312470948.73542547,-0.05075163,0.01994860,-0.99851206
1312470948.78843784,-0.05074676,0.02028048,-0.99850562
1312470948.83541560,-0.05072244,0.02042768,-0.99850385
1312470948.88843393,-0.05074080,0.02049526,-0.99850154
1312470948.93541312,-0.05102034,0.02041534,-0.99848893
1312470948.98733664,-0.05122471,0.02043205,-0.99847812
1312470949.03643203,-0.05110636,0.02033746,-0.99848612
1312470949.08727527,-0.05093199,0.02044979,-0.99849273
1312470949.13638616,-0.05081571,0.02048878,-0.99849786
1312470949.18730545,-0.05093968,0.02049136,-0.99849149
1312470949.23531437,-0.05098467,0.02069430,-0.99848501
1312470949.28731704,-0.05105959,0.02067741,-0.99848153
1312470949.33676648,-0.05094114,0.02079130,-0.99848521
1312470949.38742876,-0.05108041,0.02095408,-0.99847470
1312470949.43549156,-0.05110276,0.02099971,-0.99847259
1312470949.48729229,-0.05120214,0.02107642,-0.99846589
1312470949.53532457,-0.05129297,0.02094815,-0.99846392
1312470949.58742166,-0.05130215,0.02094056,-0.99846361
1312470949.63639879,-0.05139487,0.02084535,-0.99846083
1312470949.68741822,-0.05141233,0.02078310,-0.99846123
1312470949.73674321,-0.05133881,0.02063605,-0.99846807
1312470949.78730774,-0.05132970,0.02032893,-0.99847483
1312470949.83672309,-0.05089067,0.02021021,-0.99849972
1312470949.88729143,-0.05098013,0.02018851,-0.99849559
1312470949.93931341,-0.05094119,0.02037224,-0.99849385
1312470949.98734331,-0.05094857,0.01997207,-0.99850156
1312470950.03534389,-0.05094417,0.01985551,-0.99850411
1312470950.08732772,-0.05071002,0.01986012,-0.99851593
1312470950.13532019,-0.05071829,0.01965569,-0.99851956
1312470950.18744040,-0.05062016,0.01982146,-0.99852126
1312470950.23530865,-0.05065545,0.02020140,-0.99851186
1312470950.28728414,-0.05053096,0.02006893,-0.99852084
1312470950.33536267,-0.05039807,0.01994218,-0.99853009
1312470950.38740754,-0.05023443,0.01987228,-0.99853973
1312470950.43528152,-0.05030486,0.01991965,-0.99853524
1312470950.48741508,-0.05045753,0.01979799,-0.99852996
1312470950.53538394,-0.05061597,0.01960495,-0.99852575
1312470950.58728981,-0.05065357,0.01963523,-0.99852325
1312470950.63531733,-0.05081352,0.01933437,-0.99852099
1312470950.68429160,-0.05099550,0.01918494,-0.99851460
1312470950.73531651,-0.05101368,0.01904277,-0.99851639
1312470950.78734565,-0.05088618,0.01912933,-0.99852124
1312470950.83527970,-0.05077263,0.01909912,-0.99852760
1312470950.88729405,-0.05085355,0.01908710,-0.99852371
1312470950.93638706,-0.05085972,0.01927782,-0.99851973
1312470950.98733735,-0.05079088,0.01942032,-0.99852047
1312470951.03534412,-0.05079838,0.01946160,-0.99851929
1312470951.08427620,-0.05081882,0.01955261,-0.99851647
1312470951.13535452,-0.05090647,0.01945797,-0.99851386
1312470951.18731236,-0.05075967,0.01956957,-0.99851915
1312470951.23532534,-0.05032917,0.01971631,-0.99853805
1312470951.28733611,-0.05031913,0.01965446,-0.99853978
1312470951.33532882,-0.05033192,0.01955629,-0.99854106
1312470951.38734579,-0.05056126,0.01960330,-0.99852855
1312470951.43530416,-0.05030511,0.01968644,-0.99853985
1312470951.48728991,-0.05022687,0.01951451,-0.99854717
1312470951.53541088,-0.05043952,0.01936992,-0.99853926
1312470951.58443856,-0.05044842,0.01911241,-0.99854378
1312470951.63661098,-0.05042313,0.01907670,-0.99854574
1312470951.68443727,-0.05047411,0.01921966,-0.99854042
1312470951.73541665,-0.05039274,0.01913820,-0.99854609
1312470951.78732347,-0.05027086,0.01941099,-0.99854697
1312470951.83540773,-0.05022799,0.01952805,-0.99854685
1312470951.88728070,-0.05001123,0.01971713,-0.99855401
1312470951.93687773,-0.04987080,0.01982497,-0.99855890
1312470951.98743439,-0.04978217,0.01982050,-0.99856341
1312470952.03644800,-0.04971660,0.01979442,-0.99856719
1312470952.08734989,-0.04989584,0.01945647,-0.99856490
1312470952.13566780,-0.04988850,0.01948540,-0.99856470
1312470952.18843532,-0.04982717,0.01939748,-0.99856947
1312470952.23540425,-0.04961779,0.01932063,-0.99858139
1312470952.28728437,-0.04992352,0.01952607,-0.99856215
1312470952.33638096,-0.04995489,0.01942172,-0.99856262
1312470952.38741922,-0.05004202,0.01947265,-0.99855727
1312470952.43648815,-0.05005389,0.01949172,-0.99855630
1312470952.48742008,-0.05009720,0.01965192,-0.99855099
1312470952.53541374,-0.05014132,0.01976217,-0.99854660
1312470952.58742690,-0.05015229,0.01973866,-0.99854651
1312470952.63674426,-0.04999688,0.01971212,-0.99855483
1312470952.68729424,-0.05018029,0.01971985,-0.99854548
1312470952.73636603,-0.04994316,0.01996082,-0.99855258
1312470952.78742385,-0.05002177,0.02027529,-0.99854231
1312470952.84456134,-0.04992114,0.02035629,-0.99854569
1312470952.88733053,-0.04992528,0.02035179,-0.99854558
1312470952.93544364,-0.05003719,0.02020282,-0.99854300
1312470952.98443985,-0.05023923,0.02005023,-0.99853593
1312470953.03933883,-0.05029384,0.01979516,-0.99853827
1312470953.08731031,-0.05020992,0.01986956,-0.99854102
1312470953.13537693,-0.05011787,0.01985579,-0.99854592
1312470953.18743110,-0.05022660,0.01973844,-0.99854278
1312470953.23549104,-0.05005731,0.01972615,-0.99855152
1312470953.28744364,-0.05017055,0.01960711,-0.99854818
1312470953.33547664,-0.05000270,0.01973595,-0.99855407
1312470953.38440609,-0.04997575,0.01972345,-0.99855566
1312470953.43629909,-0.04996322,0.01977309,-0.99855531
1312470953.48728657,-0.04997246,0.01997269,-0.99855087
1312470953.53532910,-0.05005061,0.01992152,-0.99854798
1312470953.58731389,-0.05023000,0.01998448,-0.99853771
1312470953.63531876,-0.05022858,0.01995629,-0.99853835
1312470953.69624043,-0.05025909,0.01986649,-0.99853861
1312470953.73631763,-0.05045344,0.01973347,-0.99853144
1312470953.78734660,-0.05022340,0.01977184,-0.99854228
1312470953.84443045,-0.05023554,0.01985465,-0.99854003
1312470953.88728952,-0.04995297,0.02002543,-0.99855079
1312470953.93642163,-0.04992011,0.01993222,-0.99855430
1312470953.99642992,-0.05000387,0.01969358,-0.99855484
1312470954.03630972,-0.05006740,0.01951043,-0.99855526
1312470954.08734632,-0.05021763,0.01965591,-0.99854486
1312470954.14463997,-0.05008439,0.01952711,-0.99855408
1312470954.18445325,-0.05000485,0.01952939,-0.99855802
1312470954.23536587,-0.04993757,0.01956921,-0.99856061
1312470954.29634166,-0.04991045,0.01978357,-0.99855774
1312470954.33628535,-0.04962803,0.01978474,-0.99857179
1312470954.38429451,-0.04971075,0.01968696,-0.99856961
1312470954.44729662,-0.05007257,0.01993554,-0.99854660
1312470954.48843694,-0.04998543,0.01989134,-0.99855185
1312470954.53546262,-0.05006361,0.02002893,-0.99854518
1312470954.59633970,-0.05022705,0.01994664,-0.99853862
1312470954.63629770,-0.05023329,0.01985113,-0.99854021
1312470954.68729925,-0.05025276,0.01988433,-0.99853857
1312470954.74443674,-0.05028659,0.01968792,-0.99854076
1312470954.78452778,-0.05020246,0.01964405,-0.99854586
1312470954.83540654,-0.05030098,0.01962608,-0.99854125
1312470954.89644241,-0.05039079,0.01943480,-0.99854046
1312470954.93675613,-0.05040029,0.01933508,-0.99854192
1312470954.98443985,-0.05047974,0.01917709,-0.99854095
1312470955.04729867,-0.05039648,0.01915919,-0.99854550
1312470955.08431101,-0.05035271,0.01914337,-0.99854801
1312470955.13628197,-0.05054012,0.01906312,-0.99854008
1312470955.19643593,-0.05060938,0.01907102,-0.99853642
1312470955.23630667,-0.05045717,0.01914731,-0.99854267
1312470955.28844690,-0.05032856,0.01897601,-0.99855243
1312470955.34462881,-0.05024837,0.01908964,-0.99855430
1312470955.38727140,-0.05007794,0.01898001,-0.99856495
1312470955.43540645,-0.05010291,0.01901992,-0.99856294
1312470955.49629760,-0.04999446,0.01905386,-0.99856773
1312470955.53643894,-0.04990169,0.01896714,-0.99857402
1312470955.58729649,-0.04985284,0.01888564,-0.99857800
1312470955.64444733,-0.04974112,0.01881791,-0.99858485
1312470955.68741250,-0.04966914,0.01880725,-0.99858864
1312470955.73541689,-0.04953501,0.01873156,-0.99859672
1312470955.79541445,-0.04944685,0.01861386,-0.99860329
1312470955.84446430,-0.04920251,0.01846545,-0.99861812
1312470955.89529252,-0.04935224,0.01846452,-0.99861074
1312470955.94847178,-0.04930152,0.01855437,-0.99861158
1312470955.99644065,-0.04931573,0.01840628,-0.99861362
1312470956.04433608,-0.04921392,0.01860259,-0.99861501
1312470956.09642363,-0.04920444,0.01848868,-0.99861759
1312470956.14441562,-0.04926895,0.01871303,-0.99861023
1312470956.19642210,-0.04924952,0.01855663,-0.99861411
1312470956.24431634,-0.04925820,0.01852997,-0.99861417
1312470956.29530787,-0.04927124,0.01844667,-0.99861507
1312470956.34841824,-0.04937680,0.01842012,-0.99861035
1312470956.39641905,-0.04919537,0.01844309,-0.99861888
1312470956.44431233,-0.04941544,0.01816769,-0.99861306
1312470956.49634576,-0.04919415,0.01815252,-0.99862426
1312470956.54435563,-0.04890567,0.01790626,-0.99864288
1312470956.59634542,-0.04872048,0.01764121,-0.99865665
1312470956.64435124,-0.04862315,0.01744878,-0.99866477
1312470956.69635725,-0.04860581,0.01745764,-0.99866546
1312470956.74434066,-0.04872626,0.01739285,-0.99866072
1312470956.79634523,-0.04858100,0.01751705,-0.99866563
1312470956.84432411,-0.04832740,0.01773486,-0.99867409
1312470956.89571714,-0.04845590,0.01787516,-0.99866536
1312470956.94443893,-0.04864595,0.01780017,-0.99865746
1312470956.99602318,-0.04861422,0.01802052,-0.99865505
1312470957.04729438,-0.04854722,0.01794132,-0.99865974
1312470957.09615827,-0.04843905,0.01767645,-0.99866972
1312470957.14823842,-0.04845122,0.01784370,-0.99866615
1312470957.19647241,-0.04855967,0.01808441,-0.99865655
1312470957.24436021,-0.04843621,0.01813806,-0.99866158
1312470957.29632711,-0.04857050,0.01832057,-0.99865172
1312470957.34443402,-0.04863211,0.01846500,-0.99864606
1312470957.39643550,-0.04843636,0.01837997,-0.99865715
1312470957.44851947,-0.04843981,0.01831376,-0.99865820
1312470957.49630427,-0.04845649,0.01848238,-0.99865428
1312470957.54443812,-0.04847615,0.01839696,-0.99865490
1312470957.59642959,-0.04849480,0.01835737,-0.99865473
1312470957.64740324,-0.04837404,0.01837728,-0.99866022
1312470957.69643784,-0.04820164,0.01837941,-0.99866851
1312470957.74442840,-0.04819167,0.01847338,-0.99866726
1312470957.79644990,-0.04823140,0.01826535,-0.99866917
1312470957.84445286,-0.04830129,0.01823979,-0.99866626
1312470957.89632297,-0.04809380,0.01816985,-0.99867755
1312470957.94842815,-0.04805521,0.01824341,-0.99867806
1312470957.99643731,-0.04797555,0.01809413,-0.99868461
1312470958.03630805,-0.04807701,0.01819714,-0.99867786
1312470958.09644818,-0.04815016,0.01812237,-0.99867569
1312470958.14429593,-0.04826164,0.01800796,-0.99867238
1312470958.19642496,-0.04824756,0.01806129,-0.99867210
1312470958.24843836,-0.04808906,0.01784548,-0.99868362
1312470958.29629397,-0.04820964,0.01827677,-0.99867001
1312470958.34844685,-0.04818469,0.01838147,-0.99866929
1312470958.39644766,-0.04811469,0.01826859,-0.99867474
1312470958.44444895,-0.04785726,0.01836417,-0.99868536
1312470958.49643803,-0.04792854,0.01820536,-0.99868485
1312470958.54731894,-0.04794048,0.01820519,-0.99868427
1312470958.59643888,-0.04801006,0.01814314,-0.99868206
1312470958.64463615,-0.04784793,0.01809736,-0.99869067
1312470958.69530034,-0.04780360,0.01809398,-0.99869286
1312470958.74751067,-0.04777107,0.01777373,-0.99870017
1312470958.79642677,-0.04773970,0.01777347,-0.99870167
1312470958.84446406,-0.04786899,0.01785254,-0.99869407
1312470958.89533973,-0.04780086,0.01779489,-0.99869836
1312470958.94732594,-0.04790723,0.01759071,-0.99869688
1312470958.99637699,-0.04784149,0.01740823,-0.99870323
1312470959.04670501,-0.04787772,0.01750427,-0.99869982
1312470959.09538984,-0.04784166,0.01740268,-0.99870332
1312470959.14842558,-0.04771788,0.01733825,-0.99871036
1312470959.19557142,-0.04781770,0.01720090,-0.99870796
1312470959.24731445,-0.04755048,0.01709667,-0.99872251
1312470959.29533243,-0.04756777,0.01735138,-0.99871730
1312470959.34735274,-0.04741354,0.01729911,-0.99872554
1312470959.39635634,-0.04726168,0.01741828,-0.99873066
1312470959.44430089,-0.04707347,0.01739615,-0.99873994
1312470959.49630260,-0.04712452,0.01760591,-0.99873385
1312470959.54728937,-0.04707069,0.01781344,-0.99873271
1312470959.59531665,-0.04721849,0.01756538,-0.99873013
1312470959.64728737,-0.04730616,0.01761494,-0.99872511
1312470959.69642830,-0.04718626,0.01755066,-0.99873191
1312470959.74522781,-0.04704270,0.01743987,-0.99874062
1312470959.79633689,-0.04703724,0.01740279,-0.99874153
1312470959.84404349,-0.04676283,0.01730440,-0.99875612
1312470959.89637399,-0.04675652,0.01716033,-0.99875891
1312470959.94732952,-0.04663718,0.01696573,-0.99876781
1312470959.99531031,-0.04671268,0.01696528,-0.99876429
1312470960.04909420,-0.04674961,0.01698750,-0.99876218
1312470960.09539461,-0.04684283,0.01713862,-0.99875523
1312470960.14505911,-0.04665531,0.01727613,-0.99876164
1312470960.19542074,-0.04681083,0.01711170,-0.99875720
1312470960.24729466,-0.04683980,0.01721256,-0.99875410
1312470960.29569030,-0.04654678,0.01732215,-0.99876591
1312470960.34729624,-0.04633352,0.01747138,-0.99877323
1312470960.39593148,-0.04618491,0.01720799,-0.99878468
1312470960.44442534,-0.04646370,0.01699675,-0.99877537
1312470960.49635530,-0.04648859,0.01720310,-0.99877068
1312470960.54728675,-0.04662467,0.01715725,-0.99876512
1312470960.59644008,-0.04654634,0.01728101,-0.99876664
1312470960.64730215,-0.04633727,0.01722228,-0.99877738
1312470960.69633389,-0.04621503,0.01727625,-0.99878211
1312470960.74443769,-0.04640331,0.01715744,-0.99877543
1312470960.79644084,-0.04612334,0.01708617,-0.99878962
1312470960.84443879,-0.04630213,0.01699525,-0.99878290
1312470960.89636517,-0.04628517,0.01683482,-0.99878640
1312470960.94442773,-0.04623001,0.01685803,-0.99878856
1312470960.99637675,-0.04632513,0.01699201,-0.99878188
1312470961.04744864,-0.04619874,0.01665066,-0.99879349
1312470961.09632921,-0.04631331,0.01654361,-0.99878996
1312470961.14837337,-0.04634735,0.01622657,-0.99879358
1312470961.19643617,-0.04651826,0.01604722,-0.99878854
1312470961.24443316,-0.04656356,0.01599001,-0.99878734
1312470961.29643655,-0.04653856,0.01594168,-0.99878928
1312470961.34731722,-0.04651497,0.01587574,-0.99879143
1312470961.39645004,-0.04654947,0.01589150,-0.99878957
1312470961.44444776,-0.04668889,0.01580762,-0.99878439
1312470961.49634194,-0.04663510,0.01584002,-0.99878639
1312470961.54844880,-0.04682800,0.01556591,-0.99878168
1312470961.59646034,-0.04690899,0.01563380,-0.99877682
1312470961.64451671,-0.04667474,0.01529062,-0.99879310
1312470961.69631267,-0.04636529,0.01537956,-0.99880615
1312470961.74741292,-0.04622955,0.01531566,-0.99881343
1312470961.79645157,-0.04620189,0.01516741,-0.99881697
1312470961.84845328,-0.04623918,0.01530701,-0.99881311
1312470961.89528871,-0.04632026,0.01525763,-0.99881011
1312470961.94846082,-0.04645714,0.01524294,-0.99880398
1312470961.99630094,-0.04635126,0.01516202,-0.99881013
1312470962.04443955,-0.04646049,0.01510300,-0.99880595
1312470962.09543419,-0.04623483,0.01517135,-0.99881538
1312470962.14442825,-0.04634447,0.01514320,-0.99881073
1312470962.19647598,-0.04644238,0.01506716,-0.99880733
1312470962.24744296,-0.04650079,0.01475875,-0.99880922
1312470962.29530835,-0.04662435,0.01496076,-0.99880045
1312470962.34835100,-0.04650120,0.01489196,-0.99880722
1312470962.39529419,-0.04673305,0.01474326,-0.99879861
